Voltar ao catálogo

MINOTAUR 1 R/B

AtivoVLEO
NORAD 48849·ROCKET BODY·🇺🇸 United States

Lançado Jun 15, 2021 de Wallops Flight Facility

Loading…

Próximas Passagens (próximas 24 horas)

TLE

AtualizadoSource: Space-Track

Época: Sep 14, 2026, 14:49 UTC

1 48849U 21052D   26257.61748904  .00000842  00000-0  91010-4 0  9993
2 48849  54.9880 116.9124 0009305 105.2437 254.9603 14.98542804189408

Acompanhe MINOTAUR 1 R/B em tempo real com AllMySat

Download on the App Store